AirNav   Pilot Hours Calculator
 
 1690 users online  

0OH6 Fry Field Airport
Spring Valley, Ohio, USA

GOING TO SPRING VALLEY?


FAA INFORMATION EFFECTIVE 07 NOVEMBER 2019

Location

FAA Identifier: 0OH6
Lat/Long: 39-36-02.2160N 084-01-10.7580W
39-36.036933N 084-01.179300W
39.6006156,-84.0196550
(estimated)
Elevation: 775 ft. / 236 m (estimated)
Variation: 04W (1985)
From city: 1 mile SW of SPRING VALLEY, OH
Time zone: UTC -5 (UTC -4 during Daylight Saving Time)
Zip code: 45370

Airport Operations

Airport use: Private use. Permission required prior to landing
Activation date: 10/1989
Control tower: no
ARTCC: INDIANAPOLIS CENTER
FSS: DAYTON FLIGHT SERVICE STATION
Attendance: CONTINUOUS
Wind indicator: yes
Segmented circle: no

Airport Communications

WX AWOS-3 at I19 (6 nm N): 118.525 (937-372-4668)
WX AWOS-3 at I66 (9 nm SE): 124.175 (937-382-1376)
WX ASOS at MGY (10 nm W): 118.375 (937-885-2171)
WX AWOS-3 at I68 (14 nm SW): 120.55 (513-934-5500)
WX ASOS at ILN (15 nm SE): PHONE 937-383-7334
WX AWOS-3PT at SGH (17 nm NE): 134.975
WX AWOS-3 at MWO (18 nm W): 120.025 (513-422-3505)

Nearby radio navigation aids

VOR radial/distance  VOR name  Freq  Var
MXQr319/14.4MIDWEST VOR/DME112.9004W
SGHr214/16.3SPRINGFIELD VOR/DME113.2004W
DQNr146/30.4DAYTON VOR/DME114.5001W

 
NDB name  Hdg/Dist  Freq  Var  ID
ONIDA089/14.122304WMW -- .--
AIRBO300/14.540704WIL .. .-..
CLARK COUNTY218/19.834104WCCJ -.-. -.-. .---
HOOK FIELD077/20.723904WHKF .... -.- ..-.
COURT HOUSE276/29.041406WCSS -.-. ... ...
CINCINNATI033/30.433504WLUK .-.. ..- -.-
SPORTYS020/32.724504WPWF .--. .-- ..-.

Airport Services

Runway Information

Runway 4/22

Dimensions: 800 x 50 ft. / 244 x 15 m
Surface: turf
RUNWAY 4  RUNWAY 22
Traffic pattern: leftleft
Obstructions: berm30 ft. pline

Airport Ownership and Management from official FAA records

Ownership: Privately-owned
Owner: TIMOTHY JOHN FRY
2125 CENTERVILLE RD
SPRING VALLEY, OH 45370
Phone 513-862-5271
Manager: TIMOTHY JOHN FRY
2125 CENTERVILLE RD
SPRING VALLEY, OH 45370
Phone 513-862-5271

Additional Remarks

60' PLINE 1 MILE WEST OF ARPT.
FOR CD CTC COLUMBUS APCH AT 614-338-8537

Instrument Procedures

There are no published instrument procedures at 0OH6.

Some nearby airports with instrument procedures:

I19 - Greene County-Lewis A Jackson Regional Airport (6 nm N)
I66 - Clinton Field Airport (9 nm SE)
KMGY - Dayton-Wright Brothers Airport (10 nm W)
KFFO - Wright-Patterson Air Force Base (14 nm N)
I68 - Warren County Airport/John Lane Field (14 nm SW)
KILN - Wilmington Air Park (15 nm SE)
KSGH - Springfield-Beckley Municipal Airport (17 nm NE)
KMWO - Middletown Regional Airport/Hook Field (18 nm W)
 
Loc | Ops | Rwys | IFR | FBO | Links
Com | Nav | Svcs | Stats | Notes
Area around 0OH6 (Fry Field Airport)
 
Road maps at: MapQuest Bing Google
 
Aerial photo
No photo
 
Sectional chart

 
Airport distance calculator
Flying to Fry Field Airport? Find the distance to fly.

From to 0OH6

Sunrise and sunset
Times for 20-Nov-2019
 Local
(UTC-5)
 Zulu
(UTC)
Morning civil twilight06:5811:58
Sunrise07:2712:27
Sunset17:1722:17
Evening civil twilight17:4622:46

Current date and time
Zulu (UTC)  20-Nov-2019 17:08:59
Local (UTC-5)  20-Nov-2019 12:08:59
 
METAR
KMGY 
10nm W 
201653Z AUTO 00000KT 7SM OVC020 08/02 A3022 RMK AO2 SLP237 T00780017
KFFO 
13nm N 
201656Z 29004KT 7SM FEW030 OVC044 08/02 A3022 RMK AO2A SLP241
KI68 
14nm SW 
201655Z AUTO 00000KT 7SM OVC021 08/07 A3023 RMK AO1 T00820065
KILN 
14nm SE 
201654Z AUTO 29004KT 6SM HZ OVC020 08/03 A3022 RMK AO2 SLP247 T00780033
KSGH 
16nm NE 
201656Z AUTO 28006KT 9SM FEW020 OVC042 07/03 A3022 RMK AO2 SLP241 T00720028 PNO $
KMWO 
18nm W 
201655Z AUTO 06003KT 7SM OVC021 08/04 A3024 RMK AO2 T00840039
TAF
KFFO 
13nm N 
201100Z 2011/2117 30006KT 8000 BR BKN020 OVC050 610402 QNH3011INS BECMG 2016/2017 27006KT 9999 NSW BKN025 OVC080 QNH3017INS BECMG 2104/2105 VRB06KT 8000 BR BKN007 QNH3018INS BECMG 2111/2112 18009KT 9999 NSW BKN100 QNH3007INS TX08/2020Z TN03/2108Z
KILN 
14nm SE 
201133Z 2012/2112 31003KT P6SM OVC023 FM201800 31005KT P6SM BKN050 FM210200 00000KT P6SM BKN015 FM210800 17003KT 5SM BR FEW015 SCT090 BKN250
NOTAMs
Click for the latest NOTAMs
NOTAMs are issued by the DoD/FAA and will open in a separate window not controlled by AirNav.

 

 
 

Would you like to see your business listed on this page?

 If your business provides an interesting product or service to pilots, flight crews, aircraft, or users of the Fry Field Airport, you should consider listing it here.  To start the listing process, click on the button below
 
Add a business
 

Other Pages about Fry Field Airport

Update a link
 
Copyright © AirNav, LLC. All rights reserved. Privacy Policy  Contact